Atlanta Dekalb, GA

10:41 PM EDT on April 30, 2017 (GMT -0400)
Dekalb-Peachtree

Weather History for KPDK - November, 2011

Change the Weather History Date:

Friday, November 11, 2011

  Actual Average Record
Temperature  
Mean Temperature 44 °F 54 °F  
Max Temperature 55 °F 65 °F 75 °F (2015)
Min Temperature 32 °F 43 °F 32 °F (2011)
Degree Days  
Heating Degree Days 22 11  
Month to date heating degree days 109  
Since 1 July heating degree days 261  
Moisture  
Dew Point 19 °F    
Average Humidity 44    
Maximum Humidity 79    
Minimum Humidity 17    
Precipitation  
Precipitation 0.00 in 0.14 in 1.04 in (2002)
Month to date precipitation 1.45  
Year to date precipitation 46.04  
Sea Level Pressure  
Sea Level Pressure 30.20 in    
Wind  
Wind Speed 6 mph (WNW)    
Max Wind Speed 12 mph    
Max Gust Speed 20 mph    
Visibility 10 miles    
Events      
T = Trace of Precipitation, MM = Missing Value Source: NWS Daily Summary

Daily Weather History Graph

Daily Weather History Graph

Search for Another Location

Airport or City:

Trip Planner

Search our weather history database for the weather conditions in past years. The results will help you decide how hot, cold, wet, or windy it might be!

Date:

Astronomy

Nov. 11, 2011 Rise Set
Actual Time 7:05 AM EST 5:36 PM EST
Civil Twilight 6:39 AM EST 6:02 PM EST
Nautical Twilight 6:09 AM EST 6:32 PM EST
Astronomical Twilight 5:39 AM EST 7:02 PM EST
Moon 6:09 PM EST (11/11) 7:49 AM EST (11/11)
Length of Visible Light 11h 23m
Length of Day
10h 31m
Full, 99% of the Moon is Illuminated
Nov 11
Full
Nov 18
Last Quarter
Nov 25
New
Dec 2
First Quarter
Dec 10
Full

Hourly Weather History & Observations

Time (EST) Temp. Windchill Dew Point Humidity Pressure Visibility Wind Dir Wind Speed Gust Speed Precip Events Conditions
12:53 AM 41.0 °F 36.4 °F 17.1 °F 38% 30.13 in 10.0 mi NNW 6.9 mph - N/A   Clear
1:53 AM 39.9 °F 33.4 °F 18.0 °F 41% 30.14 in 10.0 mi NNW 10.4 mph - N/A   Clear
2:53 AM 37.9 °F 33.5 °F 19.0 °F 47% 30.14 in 10.0 mi NNW 5.8 mph - N/A   Clear
3:53 AM 33.8 °F 28.6 °F 19.4 °F 56% 30.12 in 10.0 mi West 5.8 mph - N/A   Clear
4:53 AM 33.1 °F 27.7 °F 21.0 °F 61% 30.17 in 10.0 mi WNW 5.8 mph - N/A   Clear
5:53 AM 32.0 °F 28.7 °F 21.2 °F 64% 30.16 in 10.0 mi West 3.5 mph - N/A   Clear
6:53 AM 32.0 °F 27.5 °F 21.2 °F 64% 30.17 in 10.0 mi West 4.6 mph - N/A   Clear
7:53 AM 34.0 °F 28.8 °F 21.0 °F 59% 30.22 in 10.0 mi WNW 5.8 mph - N/A   Clear
8:53 AM 39.9 °F 34.5 °F 19.0 °F 43% 30.25 in 10.0 mi WNW 8.1 mph - N/A   Clear
9:53 AM 44.6 °F 39.2 °F 17.6 °F 34% 30.23 in 10.0 mi NW 10.4 mph - N/A   Clear
10:53 AM 46.4 °F 41.5 °F 17.6 °F 32% 30.23 in 10.0 mi WNW 10.4 mph - N/A   Clear
11:53 AM 48.9 °F - 12.0 °F 23% 30.23 in 10.0 mi NW 6.9 mph 19.6 mph N/A   Clear
12:53 PM 51.1 °F - 12.9 °F 22% 30.21 in 10.0 mi West 9.2 mph 16.1 mph N/A   Clear
1:53 PM 53.6 °F - 12.2 °F 19% 30.17 in 10.0 mi West 10.4 mph - N/A   Clear
2:53 PM 54.0 °F - 9.0 °F 17% 30.18 in 10.0 mi WNW 8.1 mph - N/A   Clear
3:53 PM 55.0 °F - 10.9 °F 17% 30.20 in 10.0 mi WNW 11.5 mph - N/A   Clear
4:53 PM 53.1 °F - 16.0 °F 23% 30.21 in 10.0 mi WNW 5.8 mph - N/A   Clear
5:53 PM 51.1 °F - 16.0 °F 25% 30.21 in 10.0 mi West 3.5 mph - N/A   Clear
6:53 PM 42.1 °F - 23.0 °F 47% 30.23 in 10.0 mi Calm Calm - N/A   Clear
7:53 PM 39.9 °F - 25.0 °F 55% 30.24 in 10.0 mi Calm Calm - N/A   Clear
8:53 PM 37.9 °F - 26.1 °F 62% 30.24 in 10.0 mi Calm Calm - N/A   Clear
9:53 PM 37.9 °F - 27.0 °F 65% 30.25 in 10.0 mi Calm Calm - N/A   Clear
10:53 PM 36.0 °F - 27.0 °F 70% 30.26 in 10.0 mi Calm Calm - N/A   Clear
11:53 PM 34.0 °F - 28.0 °F 79% 30.25 in 10.0 mi Calm Calm - N/A   Clear